sat.trackr.live / text

‹ back to catalog

YAOGAN-42 01

NORAD 59395 · 2024-063A

PAYLOAD ACTIVE UNKNOWN

§ Identity

Operator
Country
PRC
Launch date
2024-04-02
Launch site
XICLF
Launch vehicle
Mass (kg)
RCS (m²)

External: N2YO · Heavens-Above · Gunter

§ Orbital elements

Epoch: 2026-05-24T19:47:31.523424Z

Period
94.55 min
Inclination
34.9985°
Eccentricity
0.0003050
Mean motion
15.23048699 rev/d
Perigee alt
494.6 km
Apogee alt
498.7 km
Semi-major
6,874.8 km
B*
3.5456e-4
RAAN
272.7695°
Arg perigee
113.4686°
Mean anomaly
246.6349°
Rev number
11,928

§ Raw data

YAOGAN-42 011 59395U 24063A   26144.82467041  .00008527  00000+0  35456-3 0  99922 59395  34.9985 272.7695 0003050 113.4686 246.6349 15.23048699119288

JSON: /api/v1/satellites/59395 · /tle

For live sub-satellite position, see the globe view (requires WebGL).

§ Visibility from observer

Set your observer location to see the next 7 days of passes ≥ 10°. The values pass through the URL so the page stays shareable.

No JS? Fill the form by hand. The geolocation button needs JavaScript.